Regional Weather Roundup
Issued by NWS Newport/Morehead, NC

Current Version | Previous Version | Graphics & Text | Print | Product List | Glossary On
Versions: 1 2 3 4 5 6 7 8 9 10 11 12 13 14 15 16 17 18 19 20 21 22 23 24 25 26 27 28 29 30 31 32 33 34 35 36 37 38 39 40 41 42 43 44 45 46 47 48 49 50
000 ASUS42 KMHX 011625 RWRMHX WEATHER ROUNDUP FOR EASTERN NORTH CAROLINA NATIONAL WEATHER SERVICE NEWPORT/MOREHEAD CITY NC 1200 PM EDT TUE SEP 01 2015 NOTE: "FAIR" INDICATES FEW OR NO CLOUDS BELOW 12,000 FEET WITH NO SIGNIFICANT WEATHER AND/OR OBSTRUCTIONS TO VISIBILITY NCZ015>017-031-032-045>047-102-103-011700- NORTH COAST CITY SKY/WX TMP DP RH WIND PRES REMARKS EDENTON CLOUDY 76 70 82 NW5 30.10F ELIZABETH CITY CLOUDY 82 72 71 N5 30.09F KITTY HAWK SUNNY 85 73 68 NE6 30.08S MANTEO CLOUDY 80 72 77 NE8 30.09F $$ NCZ045>047-081-094-103-104-011700- CENTRAL COAST CITY SKY/WX TMP DP RH WIND PRES REMARKS FRISCO PTSUNNY 82 75 79 N7 30.08F SWANQUARTER N/A 84 N/A N/A N5 30.06S $$ NCZ095-097-098-100-101-011700- SOUTHERN COAST CITY SKY/WX TMP DP RH WIND PRES REMARKS BEAUFORT MOSUNNY 80 73 79 W5 30.09F CEDAR ISLAND N/A 81 N/A N/A NW9 30.15S JACKSONVILLE MOSUNNY 82 70 66 N7 30.09F PINEY ISLAND MOSUNNY N/A N/A N/A N9 30.09F WILMINGTON MOSUNNY 80 71 74 NW7 30.10F $$ NCZ011>013-027>030-043-044-078>080-089-090>093-098-011700- COASTAL PLAIN CITY SKY/WX TMP DP RH WIND PRES REMARKS AHOSKIE PTSUNNY 77 71 80 CALM 30.11S CLINTON PTSUNNY 84 72 68 N3 30.11F ELIZABETHTOWN MOSUNNY 84 70 63 CALM 30.10F GOLDSBORO MOSUNNY 82 72 71 VRB1 30.10F GREENVILLE CLOUDY 79 72 78 CALM 30.12F HAVELOCK PTSUNNY 84 72 67 N9 30.10F KENANSVILLE PTSUNNY 80 69 70 NW3 30.12F KINSTON CLOUDY 79 72 78 N6 30.12F NEW BERN CLOUDY 80 70 71 W3 30.12F RICHLANDS CLOUDY 79 68 69 W3 30.11F ROCKY MOUNT MOSUNNY 82 71 69 VRB5 30.11F WASHINGTON MOSUNNY 76 70 81 CALM 30.11S WHITEVILLE MOSUNNY 83 71 67 NW3 30.11F $$ AMZ130-135-150-152-154-156-158-170-250-252-270-ANZ085-086-088-633-658-670-011700- MARINE OBSERVATIONS STATION/POSITION TIME TEMP WIND PRES WAVE SWELL AIR SEA DIR/SP/G HT/PER HT/PER (UTC) (F) (DEG/KT/KT) (MB) (FT/S) (FT/S) CHESAPEAKE LIGHT 1600 76 20/ 4/ 5 1019.6 64 E VA BEACH 1550 78 78 30/ 6/ 8 1018.4 3/ 8 2/ 8 DUCK 1600 77 78 10/ 5/ 6 1018.0 2 E DUCK 1511 79 N/A 2/10 OREGON INLET 1600 79 79 30/ 8/ 10 1018.4 13E OREGON INLT 1600 79 N/A 2/ 8 HATTERAS CG 1600 79 80 340/ 6/ 7 1018.5 DIAMOND BUOY 1550 79 84 350/ 8/ 10 1018.5 3/ 6 3/ 6 CAPE LOOKOUT 1600 80 290/ 6/ 7 1018.8 BEAUFORT LAB 1600 81 78 260/ 3/ 6 1018.4 30 SE NEW RVR IN 1508 79 81 340/ 8/ 10 1020.0 30 SE NEW RVR IN 1525 81 N/A 3/ 7 27 SE WRIGHTSVLE 1600 75 82 340/ 6/ 8 N/A 5 SE WRIGHTSVLE NOT AVBL 225 S CAPE HAT 1550 83 84 280/ 2/ 4 1019.5 3/ 7 3/ 7 41 SE CHARLESTON 1550 81 83 20/ 8/ 8 1019.2 3/ 8 2/ 8 $$

USA.gov is the U.S. government's official web portal to all federal, state and local government web resources and services.